TimeMDT,TemperatureF,Dew PointF,Humidity,Sea Level PressureIn,VisibilityMPH,Wind Direction,Wind SpeedMPH,Gust SpeedMPH,PrecipitationIn,Events,Conditions,WindDirDegrees,DateUTC
12:53 AM,46.9,30.9,54,29.94,10.0,Calm,Calm,-,N/A,,Overcast,0,2012-10-11 06:53:00
1:53 AM,46.0,30.9,56,29.94,10.0,Calm,Calm,-,N/A,,Partly Cloudy,0,2012-10-11 07:53:00
2:53 AM,45.0,30.0,56,29.94,10.0,Calm,Calm,-,N/A,,Mostly Cloudy,0,2012-10-11 08:53:00
3:53 AM,43.0,32.0,65,29.96,10.0,South,3.5,-,N/A,,Overcast,170,2012-10-11 09:53:00
4:53 AM,43.0,30.9,62,29.97,10.0,Calm,Calm,-,N/A,,Clear,0,2012-10-11 10:53:00
5:53 AM,37.0,27.0,67,30.01,10.0,Calm,Calm,-,N/A,,Clear,0,2012-10-11 11:53:00
6:53 AM,32.0,27.0,82,30.08,10.0,Calm,Calm,-,N/A,,Clear,0,2012-10-11 12:53:00
7:53 AM,37.0,28.0,70,30.07,10.0,Calm,Calm,-,N/A,,Clear,0,2012-10-11 13:53:00
8:53 AM,46.9,28.9,50,30.07,10.0,Calm,Calm,-,N/A,,Clear,0,2012-10-11 14:53:00
9:53 AM,52.0,28.9,41,30.07,10.0,Calm,Calm,-,N/A,,Clear,0,2012-10-11 15:53:00
10:53 AM,64.9,28.0,25,30.01,10.0,East,5.8,-,N/A,,Clear,80,2012-10-11 16:53:00
11:53 AM,66.9,28.9,24,29.99,10.0,ENE,3.5,-,N/A,,Clear,60,2012-10-11 17:53:00
12:53 PM,69.1,28.0,22,29.97,10.0,WSW,8.1,-,N/A,,Clear,240,2012-10-11 18:53:00
1:53 PM,70.0,28.0,21,29.94,10.0,WNW,9.2,-,N/A,,Clear,290,2012-10-11 19:53:00
2:53 PM,70.0,28.0,21,29.93,10.0,WNW,6.9,-,N/A,,Clear,300,2012-10-11 20:53:00
3:53 PM,71.6,28.4,20,30.09,10.0,Variable,5.8,-,N/A,,Clear,0,2012-10-11 21:53:00
4:53 PM,69.1,28.0,22,29.95,10.0,WNW,3.5,-,N/A,,Clear,300,2012-10-11 22:53:00
5:53 PM,66.0,30.0,26,29.98,10.0,Calm,Calm,-,N/A,,Clear,0,2012-10-11 23:53:00
6:53 PM,59.0,30.2,34,30.09,10.0,SSW,3.5,-,N/A,,Clear,210,2012-10-12 00:53:00
7:53 PM,53.1,32.0,45,30.05,10.0,Calm,Calm,-,N/A,,Clear,0,2012-10-12 01:53:00
9:53 PM,48.0,30.0,50,30.01,10.0,Calm,Calm,-,N/A,,Mostly Cloudy,0,2012-10-12 03:53:00
10:53 PM,50.0,30.9,48,29.95,10.0,Calm,Calm,-,N/A,,Mostly Cloudy,0,2012-10-12 04:53:00
11:53 PM,41.0,32.0,70,29.98,10.0,West,4.6,-,N/A,,Clear,280,2012-10-12 05:53:00